IU7LMH-13 Weather Reports


Display with metric or nautical units.
time (UTC)temp
F
wind
direction
speed
MPH
gust
MPH
rain 1hr
in
rain 24hr
in
rain mn
in
humidity
%
barometer
mb
20260906133441 93 135 7.0 11.0 0.00 0.00 0.00 43 1018.3
20260906133241 93 135 7.0 9.0 0.00 0.00 0.00 44 1018.5
20260906132841 93 180 4.0 7.0 0.00 0.00 0.00 42 1018.3
20260906132646 94 158 6.0 8.0 0.00 0.00 0.00 44 1018.4
20260906132443 94 90 4.0 7.0 0.00 0.00 0.00 44 1018.4
20260906132241 94 112 4.0 4.0 0.00 0.00 0.00 42 1018.5
20260906132045 94 135 3.0 6.0 0.00 0.00 0.00 40 1018.5
20260906131841 94 202 4.0 7.0 0.00 0.00 0.00 42 1018.5
20260906131244 93 90 4.0 7.0 0.00 0.00 0.00 41 1018.8
20260906131048 93 180 7.0 9.0 0.00 0.00 0.00 39 1018.4
20260906130842 94 158 6.0 11.0 0.00 0.00 0.00 41 1018.7
20260906130642 93 135 3.0 6.0 0.00 0.00 0.00 41 1018.5
20260906130440 94 68 4.0 8.0 0.00 0.00 0.00 43 1018.6
20260906130242 94 112 4.0 7.0 0.00 0.00 0.00 40 1018.7
20260906130050 94 180 3.0 4.0 0.00 0.00 0.00 40 1018.6
20260906125842 94 135 4.0 7.0 0.00 0.00 0.00 42 1018.6
20260906125641 94 90 5.0 8.0 0.00 0.00 0.00 41 1018.8
20260906125441 93 202 4.0 6.0 0.00 0.00 0.00 41 1018.5
20260906125241 93 112 5.0 8.0 0.00 0.00 0.00 41 1018.6
20260906125046 93 90 4.0 6.0 0.00 0.00 0.00 41 1018.5
20260906124842 92 248 5.0 7.0 0.00 0.00 0.00 43 1018.7
20260906124441 92 135 7.0 11.0 0.00 0.00 0.00 43 1018.7
20260906124243 93 112 6.0 8.0 0.00 0.00 0.00 40 1018.7
20260906124048 94 90 7.0 9.0 0.00 0.00 0.00 41 1018.7
20260906123842 94 90 4.0 7.0 0.00 0.00 0.00 41 1018.7
20260906123642 94 202 5.0 8.0 0.00 0.00 0.00 41 1018.9
20260906123441 94 158 3.0 4.0 0.00 0.00 0.00 41 1018.6
20260906123049 95 158 2.0 4.0 0.00 0.00 0.00 39 1018.8
20260906122842 94 112 4.0 9.0 0.00 0.00 0.00 39 1018.6
20260906122650 94 135 4.0 7.0 0.00 0.00 0.00 40 1018.8
20260906122441 94 158 4.0 4.0 0.00 0.00 0.00 40 1018.9
20260906122242 95 112 4.0 6.0 0.00 0.00 0.00 38 1018.7
20260906122046 94 135 7.0 9.0 0.00 0.00 0.00 40 1018.9
20260906121842 94 112 4.0 7.0 0.00 0.00 0.00 38 1018.7
20260906121443 95 112 4.0 7.0 0.00 0.00 0.00 38 1018.7
20260906121048 94 135 4.0 7.0 0.00 0.00 0.00 38 1018.6
20260906120841 94 135 4.0 6.0 0.00 0.00 0.00 37 1018.7
20260906120442 94 112 4.0 4.0 0.00 0.00 0.00 36 1018.8
20260906120242 94 112 3.0 6.0 0.00 0.00 0.00 37 1018.9
20260906120049 94 158 5.0 8.0 0.00 0.00 0.00 37 1018.9
20260906115442 95 112 5.0 8.0 0.00 0.00 0.00 37 1018.9
20260906115242 96 112 8.0 11.0 0.00 0.00 0.00 37 1018.7
20260906115046 95 90 3.0 4.0 0.00 0.00 0.00 35 1018.8
20260906114841 95 90 6.0 8.0 0.00 0.00 0.00 34 1018.8
20260906114642 95 112 5.0 8.0 0.00 0.00 0.00 35 1018.7
20260906114441 95 112 4.0 6.0 0.00 0.00 0.00 34 1018.7
20260906114242 95 90 5.0 8.0 0.00 0.00 0.00 34 1018.8
20260906114049 95 90 4.0 6.0 0.00 0.00 0.00 35 1018.8
20260906113642 95 90 7.0 8.0 0.00 0.00 0.00 35 1018.7
20260906113442 95 90 7.0 9.0 0.00 0.00 0.00 35 1018.9
20260906113240 95 112 4.0 8.0 0.00 0.00 0.00 34 1018.9
20260906113049 95 90 5.0 7.0 0.00 0.00 0.00 34 1018.9
20260906112841 95 90 4.0 6.0 0.00 0.00 0.00 34 1019.0
20260906112642 95 68 3.0 9.0 0.00 0.00 0.00 34 1018.9
20260906112441 95 90 4.0 6.0 0.00 0.00 0.00 34 1018.9
20260906112045 95 90 6.0 11.0 0.00 0.00 0.00 34 1018.8
20260906111841 94 135 3.0 7.0 0.00 0.00 0.00 36 1018.9
20260906111646 94 90 6.0 9.0 0.00 0.00 0.00 36 1018.9
20260906111441 95 112 6.0 9.0 0.00 0.00 0.00 35 1018.9
20260906111242 95 135 4.0 8.0 0.00 0.00 0.00 35 1018.9
20260906111049 95 112 5.0 11.0 0.00 0.00 0.00 33 1018.8
20260906110841 95 202 4.0 6.0 0.00 0.00 0.00 35 1018.8
20260906110642 95 112 4.0 6.0 0.00 0.00 0.00 35 1018.9
20260906110442 95 90 4.0 7.0 0.00 0.00 0.00 35 1018.8
20260906110241 94 112 5.0 8.0 0.00 0.00 0.00 34 1018.7
20260906110049 94 68 5.0 7.0 0.00 0.00 0.00 34 1019.0
20260906105842 94 68 7.0 9.0 0.00 0.00 0.00 36 1018.8
20260906105641 94 112 6.0 11.0 0.00 0.00 0.00 34 1018.7
20260906105242 96 45 8.0 11.0 0.00 0.00 0.00 33 1018.9
20260906105047 95 112 4.0 7.0 0.00 0.00 0.00 34 1018.8
20260906104842 96 90 4.0 6.0 0.00 0.00 0.00 34 1019.1
20260906104650 96 90 4.0 8.0 0.00 0.00 0.00 33 1018.8
20260906104440 96 112 5.0 8.0 0.00 0.00 0.00 32 1018.9
20260906104241 96 90 5.0 8.0 0.00 0.00 0.00 32 1018.9
20260906104047 95 90 4.0 7.0 0.00 0.00 0.00 32 1019.0
20260906103841 95 112 6.0 8.0 0.00 0.00 0.00 33 1019.0
20260906103642 95 112 5.0 8.0 0.00 0.00 0.00 31 1019.1
20260906103442 95 68 5.0 7.0 0.00 0.00 0.00 32 1019.0
20260906103242 95 158 5.0 9.0 0.00 0.00 0.00 33 1018.8
20260906103049 96 135 3.0 6.0 0.00 0.00 0.00 32 1019.0
20260906102842 96 112 2.0 4.0 0.00 0.00 0.00 33 1018.9
20260906102241 96 90 4.0 6.0 0.00 0.00 0.00 31 1019.0
20260906101841 96 112 4.0 8.0 0.00 0.00 0.00 34 1019.0
20260906101642 96 202 4.0 6.0 0.00 0.00 0.00 33 1019.2
20260906101442 96 202 3.0 4.0 0.00 0.00 0.00 33 1019.0
20260906101242 97 45 4.0 6.0 0.00 0.00 0.00 31 1018.9
20260906101057 96 68 2.0 4.0 0.00 0.00 0.00 33 1019.1
20260906100841 95 90 4.0 7.0 0.00 0.00 0.00 33 1019.0
20260906100641 95 90 2.0 6.0 0.00 0.00 0.00 34 1019.1
20260906100441 96 135 3.0 4.0 0.00 0.00 0.00 34 1018.9
20260906100241 96 158 3.0 6.0 0.00 0.00 0.00 34 1019.1
20260906100049 95 225 2.0 4.0 0.00 0.00 0.00 33 1019.1
20260906095841 95 90 4.0 6.0 0.00 0.00 0.00 33 1019.0
20260906095641 96 112 2.0 4.0 0.00 0.00 0.00 34 1019.1
20260906095442 96 112 4.0 8.0 0.00 0.00 0.00 34 1019.3
20260906095241 96 158 2.0 4.0 0.00 0.00 0.00 34 1019.0
20260906095045 96 90 3.0 4.0 0.00 0.00 0.00 34 1019.2
20260906094644 96 90 3.0 6.0 0.00 0.00 0.00 30 1019.0
20260906094441 96 68 4.0 4.0 0.00 0.00 0.00 30 1019.0
20260906094242 96 112 4.0 7.0 0.00 0.00 0.00 30 1019.3
20260906094053 96 68 4.0 6.0 0.00 0.00 0.00 29 1019.3
20260906093841 96 22 1.0 2.0 0.00 0.00 0.00 29 1019.3
20260906093441 96 0 3.0 6.0 0.00 0.00 0.00 30 1019.2
20260906093241 95 270 2.0 2.0 0.00 0.00 0.00 30 1019.2
20260906093052 95 22 2.0 4.0 0.00 0.00 0.00 31 1019.3
20260906092841 96 68 4.0 6.0 0.00 0.00 0.00 30 1019.2
20260906092650 96 45 2.0 4.0 0.00 0.00 0.00 31 1019.4
20260906092441 96 338 3.0 6.0 0.00 0.00 0.00 31 1019.2
20260906092242 97 22 4.0 6.0 0.00 0.00 0.00 30 1019.3
20260906091641 96 22 2.0 4.0 0.00 0.00 0.00 31 1019.5
20260906091441 95 338 3.0 4.0 0.00 0.00 0.00 30 1019.5
20260906091241 95 292 2.0 4.0 0.00 0.00 0.00 30 1019.3
20260906091048 96 22 2.0 2.0 0.00 0.00 0.00 30 1019.3
20260906090841 96 338 2.0 4.0 0.00 0.00 0.00 29 1019.3
20260906090642 96 315 2.0 4.0 0.00 0.00 0.00 28 1019.4
20260906090443 95 68 2.0 4.0 0.00 0.00 0.00 29 1019.4
20260906090241 95 248 2.0 2.0 0.00 0.00 0.00 28 1019.5
20260906090048 94 292 2.0 4.0 0.00 0.00 0.00 29 1019.4
20260906085642 95 22 2.0 4.0 0.00 0.00 0.00 29 1019.4
20260906085442 96 292 2.0 4.0 0.00 0.00 0.00 28 1019.6
20260906085242 96 315 1.0 2.0 0.00 0.00 0.00 29 1019.5
20260906085045 96 22 1.0 2.0 0.00 0.00 0.00 28 1019.5
20260906084841 95 315 2.0 2.0 0.00 0.00 0.00 29 1019.5
20260906084640 95 338 1.0 2.0 0.00 0.00 0.00 29 1019.5
20260906084442 95 315 2.0 4.0 0.00 0.00 0.00 28 1019.5
20260906084241 94 292 0.0 2.0 0.00 0.00 0.00 27 1019.6
20260906084049 94 270 2.0 2.0 0.00 0.00 0.00 28 1019.6
20260906083841 95 292 1.0 4.0 0.00 0.00 0.00 28 1019.5
20260906083641 95 248 2.0 4.0 0.00 0.00 0.00 28 1019.5
20260906083441 94 292 2.0 2.0 0.00 0.00 0.00 29 1019.4
20260906083241 94 338 2.0 4.0 0.00 0.00 0.00 28 1019.4
20260906083047 95 338 2.0 4.0 0.00 0.00 0.00 28 1019.6
20260906082641 95 338 2.0 4.0 0.00 0.00 0.00 28 1019.6
20260906082442 95 292 0.0 2.0 0.00 0.00 0.00 28 1019.7
20260906082241 95 292 2.0 4.0 0.00 0.00 0.00 28 1019.9
20260906082045 95 22 0.0 2.0 0.00 0.00 0.00 29 1019.7
20260906081641 95 158 1.0 2.0 0.00 0.00 0.00 29 1019.8
20260906081242 94 292 1.0 2.0 0.00 0.00 0.00 31 1019.5
20260906080842 94 112 1.0 2.0 0.00 0.00 0.00 31 1019.6
20260906080641 93 338 0.0 2.0 0.00 0.00 0.00 32 1019.7
20260906080443 95 68 2.0 2.0 0.00 0.00 0.00 32 1019.5
20260906080050 94 158 1.0 2.0 0.00 0.00 0.00 31 1019.3
20260906075841 94 270 0.0 0.0 0.00 0.00 0.00 32 1019.5
20260906075442 93 292 1.0 2.0 0.00 0.00 0.00 34 1019.3
20260906075241 93 270 0.0 2.0 0.00 0.00 0.00 34 1019.4
20260906074841 93 292 0.0 2.0 0.00 0.00 0.00 33 1019.4
20260906074641 93 270 0.0 2.0 0.00 0.00 0.00 33 1019.3
20260906074441 93 248 2.0 2.0 0.00 0.00 0.00 33 1019.5
20260906073841 92 292 1.0 2.0 0.00 0.00 0.00 33 1019.4
20260906073642 91 22 0.0 2.0 0.00 0.00 0.00 33 1019.2
20260906073442 90 270 1.0 2.0 0.00 0.00 0.00 35 1019.3
20260906073241 90 292 0.0 2.0 0.00 0.00 0.00 35 1019.4
20260906072840 90 270 0.0 2.0 0.00 0.00 0.00 35 1019.3
20260906072642 90 225 2.0 2.0 0.00 0.00 0.00 35 1019.2
20260906072443 90 338 1.0 2.0 0.00 0.00 0.00 36 1019.4
20260906072242 90 292 0.0 2.0 0.00 0.00 0.00 38 1019.1
20260906071841 90 315 1.0 2.0 0.00 0.00 0.00 37 1019.1
20260906071642 90 338 0.0 2.0 0.00 0.00 0.00 37 1019.3
20260906071242 88 225 2.0 2.0 0.00 0.00 0.00 38 1019.4
20260906071048 88 292 2.0 2.0 0.00 0.00 0.00 39 1019.2
20260906070843 88 292 2.0 4.0 0.00 0.00 0.00 39 1019.1
20260906070641 88 292 2.0 2.0 0.00 0.00 0.00 39 1019.2
20260906070443 88 270 1.0 2.0 0.00 0.00 0.00 39 1019.2
20260906070242 87 292 2.0 4.0 0.00 0.00 0.00 39 1019.0
20260906070049 87 270 0.0 0.0 0.00 0.00 0.00 39 1018.9
20260906065842 86 248 1.0 2.0 0.00 0.00 0.00 40 1019.0
20260906065643 86 292 2.0 2.0 0.00 0.00 0.00 41 1019.0
20260906065442 86 270 2.0 2.0 0.00 0.00 0.00 41 1019.0
20260906065242 85 292 2.0 4.0 0.00 0.00 0.00 40 1019.0
20260906065045 85 315 2.0 4.0 0.00 0.00 0.00 41 1018.9
20260906064841 85 338 2.0 4.0 0.00 0.00 0.00 41 1019.0
20260906064642 85 292 2.0 2.0 0.00 0.00 0.00 43 1019.1
20260906064442 84 292 2.0 4.0 0.00 0.00 0.00 42 1018.9
20260906064241 84 292 2.0 4.0 0.00 0.00 0.00 43 1018.9
20260906064056 84 315 2.0 2.0 0.00 0.00 0.00 43 1018.8
20260906063841 83 292 2.0 4.0 0.00 0.00 0.00 43 1018.8
20260906063641 83 315 2.0 2.0 0.00 0.00 0.00 44 1018.7
20260906063241 82 292 2.0 4.0 0.00 0.00 0.00 45 1018.8
20260906063054 82 315 3.0 4.0 0.00 0.00 0.00 45 1018.7
20260906062840 82 315 2.0 4.0 0.00 0.00 0.00 45 1018.8
20260906062646 82 315 2.0 4.0 0.00 0.00 0.00 45 1018.9
20260906062443 82 315 2.0 2.0 0.00 0.00 0.00 46 1018.9
20260906062242 81 292 2.0 2.0 0.00 0.00 0.00 45 1018.9
20260906061644 81 292 2.0 4.0 0.00 0.00 0.00 47 1018.8
20260906061241 80 315 3.0 4.0 0.00 0.00 0.00 47 1018.9
20260906061049 80 315 3.0 6.0 0.00 0.00 0.00 47 1018.8
20260906060842 80 315 3.0 6.0 0.00 0.00 0.00 47 1018.8
20260906060643 79 315 4.0 4.0 0.00 0.00 0.00 48 1018.9
20260906060443 79 292 3.0 4.0 0.00 0.00 0.00 48 1018.8
20260906060247 79 315 3.0 6.0 0.00 0.00 0.00 48 1018.9
20260906055641 78 270 3.0 4.0 0.00 0.00 0.00 49 1018.8
20260906055441 78 315 2.0 4.0 0.00 0.00 0.00 49 1019.0
20260906055241 78 338 3.0 4.0 0.00 0.00 0.00 49 1018.8
20260906055045 77 338 2.0 4.0 0.00 0.00 0.00 51 1018.8
20260906054843 77 292 2.0 4.0 0.00 0.00 0.00 52 1018.8
20260906054649 76 292 2.0 4.0 0.00 0.00 0.00 52 1018.8
20260906054242 76 315 2.0 4.0 0.00 0.00 0.00 55 1018.8
20260906054058 75 315 2.0 4.0 0.00 0.00 0.00 56 1018.7
20260906053841 75 315 2.0 2.0 0.00 0.00 0.00 58 1018.7
20260906053242 73 315 2.0 4.0 0.00 0.00 0.00 60 1018.6
20260906053047 73 338 2.0 2.0 0.00 0.00 0.00 60 1018.7
20260906052841 73 315 1.0 2.0 0.00 0.00 0.00 61 1018.8
20260906052641 73 270 1.0 2.0 0.00 0.00 0.00 62 1018.8
20260906052046 72 315 0.0 2.0 0.00 0.00 0.00 63 1018.5
20260906051641 71 0 0.0 0.0 0.00 0.00 0.00 64 1018.5
20260906051442 71 315 0.0 0.0 0.00 0.00 0.00 65 1018.5
20260906051241 70 315 1.0 2.0 0.00 0.00 0.00 66 1018.6
20260906050841 70 292 0.0 0.0 0.00 0.00 0.00 67 1018.5
20260906050641 70 292 0.0 0.0 0.00 0.00 0.00 67 1018.5
20260906050443 70 315 0.0 2.0 0.00 0.00 0.00 67 1018.4
20260906050243 70 315 0.0 0.0 0.00 0.00 0.00 67 1018.6
20260906050058 70 0 0.0 2.0 0.00 0.00 0.00 67 1018.5
20260906045841 70 338 0.0 0.0 0.00 0.00 0.00 68 1018.4
20260906045641 70 338 0.0 0.0 0.00 0.00 0.00 68 1018.3
20260906045443 69 22 1.0 2.0 0.00 0.00 0.00 68 1018.5
20260906045046 69 315 0.0 0.0 0.00 0.00 0.00 68 1018.3
20260906044842 69 292 0.0 2.0 0.00 0.00 0.00 69 1018.4
20260906044648 69 338 0.0 0.0 0.00 0.00 0.00 69 1018.3
20260906044443 69 45 0.0 2.0 0.00 0.00 0.00 69 1018.6
20260906044241 69 338 0.0 2.0 0.00 0.00 0.00 69 1018.4
20260906044048 69 338 1.0 2.0 0.00 0.00 0.00 68 1018.4
20260906043641 70 338 1.0 2.0 0.00 0.00 0.00 68 1018.1
20260906043502 70 338 1.0 2.0 0.00 0.00 0.00 67 1018.3
20260906043241 71 338 1.0 2.0 0.00 0.00 0.00 67 1018.3
20260906042641 71 315 0.0 0.0 0.00 0.00 0.00 64 1018.3
20260906042444 71 315 0.0 2.0 0.00 0.00 0.00 63 1018.4
20260906042241 72 338 0.0 0.0 0.00 0.00 0.00 63 1018.3
20260906041842 71 338 0.0 2.0 0.00 0.00 0.00 63 1018.3
20260906041341 71 315 0.0 2.0 0.00 0.00 0.00 64 1018.1
20260906040741 72 292 0.0 0.0 0.00 0.00 0.00 65 1018.1
20260906040341 72 315 1.0 2.0 0.00 0.00 0.00 64 1018.3
20260906040142 72 292 1.0 2.0 0.00 0.00 0.00 64 1018.0
20260906035943 72 292 2.0 2.0 0.00 0.00 0.00 64 1018.2
20260906035742 72 270 0.0 0.0 0.00 0.00 0.00 65 1018.1
20260906035548 73 292 0.0 2.0 0.00 0.00 0.00 65 1018.2
20260906035342 73 292 1.0 2.0 0.00 0.00 0.00 64 1018.1
20260906035142 74 292 2.0 2.0 0.00 0.00 0.00 63 1018.1
20260906034942 74 292 2.0 2.0 0.00 0.00 0.00 62 1018.0
20260906034743 74 270 2.0 2.0 0.00 0.00 0.00 61 1018.0
20260906034555 74 270 2.0 2.0 0.00 0.00 0.00 61 1017.9
20260906034341 74 270 2.0 2.0 0.00 0.00 0.00 61 1018.1
20260906034143 74 270 2.0 4.0 0.00 0.00 0.00 60 1018.0
20260906033944 74 270 3.0 4.0 0.00 0.00 0.00 60 1017.9
20260906033743 74 270 2.0 4.0 0.00 0.00 0.00 61 1018.0
20260906033342 74 292 2.0 4.0 0.00 0.00 0.00 62 1017.9
20260906033141 74 292 2.0 4.0 0.00 0.00 0.00 63 1017.8
20260906032943 74 292 2.0 4.0 0.00 0.00 0.00 62 1017.9
20260906032549 74 270 3.0 4.0 0.00 0.00 0.00 62 1017.8
20260906032142 74 270 3.0 4.0 0.00 0.00 0.00 61 1017.7
20260906031945 74 248 4.0 4.0 0.00 0.00 0.00 61 1017.7
20260906031741 75 270 3.0 4.0 0.00 0.00 0.00 61 1017.6
20260906031549 75 270 4.0 4.0 0.00 0.00 0.00 60 1017.7
20260906031341 74 270 3.0 4.0 0.00 0.00 0.00 61 1017.6
20260906030945 74 248 3.0 4.0 0.00 0.00 0.00 62 1017.7
20260906030741 73 270 3.0 4.0 0.00 0.00 0.00 62 1017.7
20260906030544 73 270 2.0 2.0 0.00 0.00 0.00 63 1017.8
20260906030341 73 248 0.0 0.0 0.00 0.00 0.00 65 1017.6
20260906030146 73 180 0.0 0.0 0.00 0.00 0.00 64 1017.5
20260906025941 73 225 0.0 0.0 0.00 0.00 0.00 64 1017.9
20260906025741 74 270 0.0 0.0 0.00 0.00 0.00 63 1017.9
20260906025342 74 292 0.0 0.0 0.00 0.00 0.00 64 1017.9
20260906025143 74 338 0.0 0.0 0.00 0.00 0.00 64 1018.0
20260906024743 74 292 1.0 4.0 0.00 0.00 0.00 62 1017.7
20260906024547 74 270 0.0 2.0 0.00 0.00 0.00 63 1017.9
20260906024341 74 270 0.0 0.0 0.00 0.00 0.00 64 1017.7
20260906023943 74 270 1.0 2.0 0.00 0.00 0.00 63 1017.7
20260906023742 74 292 0.0 0.0 0.00 0.00 0.00 64 1017.8
20260906023549 74 292 0.0 0.0 0.00 0.00 0.00 64 1017.8
20260906023342 74 292 0.0 2.0 0.00 0.00 0.00 64 1017.7
20260906023143 74 292 0.0 0.0 0.00 0.00 0.00 64 1017.8
20260906022741 74 292 0.0 2.0 0.00 0.00 0.00 64 1017.9
20260906022341 74 292 2.0 2.0 0.00 0.00 0.00 64 1017.8
20260906022142 74 292 2.0 2.0 0.00 0.00 0.00 66 1017.8
20260906021941 74 315 1.0 2.0 0.00 0.00 0.00 65 1017.9
20260906021743 74 315 1.0 2.0 0.00 0.00 0.00 67 1018.1
20260906021546 73 292 0.0 2.0 0.00 0.00 0.00 68 1018.0
20260906021342 73 292 1.0 2.0 0.00 0.00 0.00 68 1017.8
20260906021143 73 248 0.0 2.0 0.00 0.00 0.00 69 1017.8
20260906020942 73 0 0.0 0.0 0.00 0.00 0.00 69 1017.9
20260906020741 73 338 0.0 0.0 0.00 0.00 0.00 69 1018.1
20260906020544 73 292 0.0 0.0 0.00 0.00 0.00 69 1018.0
20260906020341 73 202 0.0 0.0 0.00 0.00 0.00 69 1017.9
20260906020145 73 315 0.0 0.0 0.00 0.00 0.00 69 1017.9
20260906015942 73 0 0.0 0.0 0.00 0.00 0.00 69 1018.0
20260906015547 74 202 0.0 2.0 0.00 0.00 0.00 69 1017.9
20260906014942 74 292 0.0 0.0 0.00 0.00 0.00 69 1017.9
20260906014742 74 315 0.0 2.0 0.00 0.00 0.00 69 1017.9
20260906014547 74 292 2.0 4.0 0.00 0.00 0.00 69 1018.0
20260906014341 74 292 3.0 4.0 0.00 0.00 0.00 69 1018.0
20260906014141 74 270 4.0 6.0 0.00 0.00 0.00 69 1017.9
20260906013943 74 270 5.0 7.0 0.00 0.00 0.00 70 1017.7
20260906013741 74 248 4.0 6.0 0.00 0.00 0.00 70 1017.9
20260906013545 74 292 4.0 6.0 0.00 0.00 0.00 70 1018.0
20260906013340 74 270 4.0 4.0 0.00 0.00 0.00 69 1017.9
20260906013143 74 248 4.0 4.0 0.00 0.00 0.00 69 1018.1
20260906012942 75 270 2.0 4.0 0.00 0.00 0.00 68 1017.9
20260906012741 75 270 2.0 4.0 0.00 0.00 0.00 68 1017.8
20260906012548 75 292 3.0 4.0 0.00 0.00 0.00 67 1018.1
20260906012340 75 292 2.0 4.0 0.00 0.00 0.00 66 1018.1
20260906012142 76 292 3.0 4.0 0.00 0.00 0.00 66 1017.9
20260906011940 76 292 3.0 4.0 0.00 0.00 0.00 65 1017.9
20260906011742 75 292 3.0 4.0 0.00 0.00 0.00 65 1018.0
20260906011554 75 292 4.0 4.0 0.00 0.00 0.00 66 1018.0
20260906011342 75 292 3.0 4.0 0.00 0.00 0.00 66 1018.1
20260906011141 74 292 4.0 4.0 0.00 0.00 0.00 67 1018.1
20260906010945 74 292 4.0 4.0 0.00 0.00 0.00 68 1018.2
20260906010741 74 292 3.0 4.0 0.00 0.00 0.00 68 1018.2
20260906010545 74 292 3.0 4.0 0.00 0.00 0.00 69 1018.2
20260906010341 73 292 2.0 4.0 0.00 0.00 0.00 69 1018.0
20260906005742 73 292 2.0 4.0 0.00 0.00 0.00 69 1017.9
20260906005547 73 270 3.0 4.0 0.00 0.00 0.00 69 1018.2
20260906005342 73 292 2.0 2.0 0.00 0.00 0.00 69 1018.1
20260906004941 73 292 2.0 4.0 0.00 0.00 0.00 69 1018.2
20260906004741 73 315 2.0 2.0 0.00 0.00 0.00 69 1018.1
20260906004340 74 292 1.0 2.0 0.00 0.00 0.00 69 1018.1
20260906004144 74 315 1.0 2.0 0.00 0.00 0.00 69 1018.0
20260906003944 74 292 1.0 2.0 0.00 0.00 0.00 69 1018.2
20260906003741 74 315 1.0 2.0 0.00 0.00 0.00 68 1018.2
20260906003545 74 315 1.0 2.0 0.00 0.00 0.00 68 1018.0
20260906003343 74 292 2.0 4.0 0.00 0.00 0.00 67 1017.9
20260906003142 75 338 2.0 2.0 0.00 0.00 0.00 67 1017.9
20260906002943 75 292 2.0 2.0 0.00 0.00 0.00 66 1017.9
20260906002742 75 292 2.0 2.0 0.00 0.00 0.00 66 1018.0
20260906002557 75 315 2.0 4.0 0.00 0.00 0.00 66 1017.9
20260906002147 75 292 2.0 4.0 0.00 0.00 0.00 66 1018.0
20260906001743 74 315 2.0 4.0 0.00 0.00 0.00 65 1018.0
20260906001552 75 315 2.0 2.0 0.00 0.00 0.00 65 1017.9
20260906001341 75 315 2.0 2.0 0.00 0.00 0.00 64 1017.9
20260906000944 75 315 2.0 2.0 0.00 0.00 0.00 65 1018.0
20260906000741 75 315 1.0 2.0 0.00 0.00 0.00 64 1017.9
20260906000546 75 315 1.0 2.0 0.00 0.00 0.00 64 1017.9
20260906000341 75 315 1.0 2.0 0.00 0.00 0.00 64 1018.2
20260906000143 75 315 1.0 2.0 0.00 0.00 0.00 64 1018.1
20260905235943 75 292 0.0 2.0 0.00 0.00 0.00 64 1018.2
20260905235741 75 315 1.0 2.0 0.00 0.00 0.00 63 1018.2
20260905235547 75 315 1.0 2.0 0.00 0.00 0.00 63 1018.2
20260905235342 75 315 2.0 2.0 0.00 0.00 0.00 63 1018.0
20260905235142 75 315 2.0 2.0 0.00 0.00 0.00 63 1018.1
20260905234942 75 315 1.0 2.0 0.00 0.00 0.00 63 1018.1
20260905234742 75 315 2.0 2.0 0.00 0.00 0.00 63 1018.1
20260905234342 75 292 1.0 2.0 0.00 0.00 0.00 64 1018.1
20260905234143 75 315 1.0 2.0 0.00 0.00 0.00 64 1018.3
20260905233957 75 315 2.0 2.0 0.00 0.00 0.00 64 1017.9
20260905233741 75 292 1.0 2.0 0.00 0.00 0.00 63 1018.0
20260905233545 75 292 0.0 2.0 0.00 0.00 0.00 62 1018.0
20260905233341 76 292 1.0 2.0 0.00 0.00 0.00 62 1018.0
20260905233141 76 292 1.0 2.0 0.00 0.00 0.00 62 1018.2
20260905232943 76 315 2.0 2.0 0.00 0.00 0.00 61 1017.9
20260905232743 76 315 1.0 2.0 0.00 0.00 0.00 62 1018.2
20260905232547 76 292 2.0 2.0 0.00 0.00 0.00 61 1018.1
20260905232341 76 292 2.0 4.0 0.00 0.00 0.00 62 1017.9
20260905232141 76 292 3.0 4.0 0.00 0.00 0.00 62 1018.2
20260905231946 76 292 2.0 4.0 0.00 0.00 0.00 62 1018.0
20260905231742 76 292 2.0 4.0 0.00 0.00 0.00 62 1018.3
20260905231556 76 270 3.0 4.0 0.00 0.00 0.00 63 1018.2
20260905231343 76 292 3.0 4.0 0.00 0.00 0.00 63 1018.1
20260905231143 76 292 2.0 4.0 0.00 0.00 0.00 63 1018.2
20260905230946 76 292 2.0 2.0 0.00 0.00 0.00 64 1018.2
20260905230741 76 292 1.0 2.0 0.00 0.00 0.00 65 1018.1
20260905230544 75 292 2.0 2.0 0.00 0.00 0.00 65 1018.3
20260905230342 75 292 2.0 2.0 0.00 0.00 0.00 66 1018.3
20260905230143 75 292 2.0 2.0 0.00 0.00 0.00 66 1018.1
20260905225944 75 292 2.0 2.0 0.00 0.00 0.00 67 1018.1
20260905225742 76 292 2.0 2.0 0.00 0.00 0.00 67 1018.1
20260905225548 76 315 2.0 2.0 0.00 0.00 0.00 67 1018.3
20260905225342 76 292 2.0 2.0 0.00 0.00 0.00 66 1018.3
20260905225142 76 270 2.0 2.0 0.00 0.00 0.00 66 1018.2
20260905224741 76 270 2.0 2.0 0.00 0.00 0.00 66 1018.2
20260905224550 76 292 2.0 2.0 0.00 0.00 0.00 65 1018.4
20260905224342 76 292 2.0 2.0 0.00 0.00 0.00 65 1018.4
20260905224143 76 292 2.0 2.0 0.00 0.00 0.00 64 1018.2
20260905223943 76 292 2.0 2.0 0.00 0.00 0.00 63 1018.3
20260905223741 76 292 2.0 2.0 0.00 0.00 0.00 62 1018.4
20260905223341 76 292 2.0 2.0 0.00 0.00 0.00 58 1018.5
20260905222941 76 270 2.0 4.0 0.00 0.00 0.00 57 1018.2
20260905222743 76 292 2.0 2.0 0.00 0.00 0.00 58 1018.2
20260905222549 76 292 2.0 2.0 0.00 0.00 0.00 58 1018.5
20260905222341 77 292 1.0 2.0 0.00 0.00 0.00 58 1018.6
20260905222142 77 315 2.0 4.0 0.00 0.00 0.00 57 1018.4
20260905221941 77 292 2.0 4.0 0.00 0.00 0.00 57 1018.5
20260905221743 77 292 2.0 2.0 0.00 0.00 0.00 56 1018.4
20260905221552 77 315 2.0 2.0 0.00 0.00 0.00 57 1018.3
20260905221342 77 315 2.0 2.0 0.00 0.00 0.00 57 1018.6
20260905221152 77 315 2.0 2.0 0.00 0.00 0.00 58 1018.3
20260905220945 77 292 2.0 2.0 0.00 0.00 0.00 60 1018.3
20260905220742 77 315 2.0 2.0 0.00 0.00 0.00 60 1018.5
20260905220342 77 315 2.0 2.0 0.00 0.00 0.00 59 1018.4
20260905220156 76 292 2.0 2.0 0.00 0.00 0.00 62 1018.2
20260905215942 76 315 1.0 2.0 0.00 0.00 0.00 65 1018.1
20260905215743 76 315 2.0 2.0 0.00 0.00 0.00 65 1018.1
20260905215548 76 292 1.0 2.0 0.00 0.00 0.00 66 1018.1
20260905215342 76 315 1.0 2.0 0.00 0.00 0.00 68 1018.3
20260905215142 76 315 0.0 0.0 0.00 0.00 0.00 68 1018.1
20260905214942 77 292 0.0 0.0 0.00 0.00 0.00 70 1018.0
20260905214743 77 315 0.0 0.0 0.00 0.00 0.00 70 1018.0
20260905214551 77 315 0.0 0.0 0.00 0.00 0.00 70 1018.2
20260905214341 78 315 0.0 0.0 0.00 0.00 0.00 70 1018.2
20260905214142 78 292 0.0 0.0 0.00 0.00 0.00 70 1018.0
20260905213944 78 292 0.0 0.0 0.00 0.00 0.00 70 1018.3
20260905213545 78 292 0.0 0.0 0.00 0.00 0.00 69 1018.2
20260905213341 79 270 1.0 2.0 0.00 0.00 0.00 69 1018.1
20260905213142 79 0 0.0 2.0 0.00 0.00 0.00 69 1017.9
20260905212942 79 292 0.0 0.0 0.00 0.00 0.00 69 1018.0
20260905212743 79 315 0.0 2.0 0.00 0.00 0.00 69 1018.0
20260905212556 80 292 0.0 2.0 0.00 0.00 0.00 68 1018.1
20260905212343 80 292 2.0 2.0 0.00 0.00 0.00 68 1018.0
20260905212142 80 292 2.0 2.0 0.00 0.00 0.00 67 1018.0
20260905211941 81 315 2.0 4.0 0.00 0.00 0.00 67 1018.0
20260905211742 81 270 2.0 2.0 0.00 0.00 0.00 66 1018.2
20260905211548 81 292 2.0 2.0 0.00 0.00 0.00 66 1018.2
20260905211343 81 292 2.0 4.0 0.00 0.00 0.00 65 1017.9
20260905211142 82 292 2.0 2.0 0.00 0.00 0.00 65 1018.1
20260905210944 82 292 2.0 4.0 0.00 0.00 0.00 65 1018.2
20260905210742 82 292 2.0 4.0 0.00 0.00 0.00 65 1018.0
20260905210546 82 292 3.0 4.0 0.00 0.00 0.00 64 1018.0
20260905210342 82 292 2.0 2.0 0.00 0.00 0.00 64 1017.9
20260905205940 82 248 2.0 4.0 0.00 0.00 0.00 64 1017.8
20260905205743 82 270 3.0 6.0 0.00 0.00 0.00 63 1017.9
20260905205549 82 248 4.0 4.0 0.00 0.00 0.00 63 1017.9
20260905205141 83 248 3.0 4.0 0.00 0.00 0.00 63 1018.0
20260905204942 83 270 4.0 6.0 0.00 0.00 0.00 63 1017.9
20260905204547 83 270 4.0 6.0 0.00 0.00 0.00 63 1017.9
20260905204343 83 270 5.0 7.0 0.00 0.00 0.00 63 1017.8
20260905204142 83 270 4.0 4.0 0.00 0.00 0.00 63 1018.0
20260905203945 83 248 4.0 6.0 0.00 0.00 0.00 63 1018.0
20260905203742 83 292 4.0 6.0 0.00 0.00 0.00 63 1017.7
20260905203343 83 248 4.0 4.0 0.00 0.00 0.00 63 1017.9
20260905203143 83 270 3.0 4.0 0.00 0.00 0.00 63 1017.8
20260905202942 83 270 2.0 4.0 0.00 0.00 0.00 63 1017.9
20260905202743 83 270 2.0 2.0 0.00 0.00 0.00 63 1017.7
20260905202549 83 270 2.0 2.0 0.00 0.00 0.00 62 1017.8
20260905202344 83 292 2.0 4.0 0.00 0.00 0.00 62 1017.7
20260905202143 83 270 3.0 4.0 0.00 0.00 0.00 62 1017.8
20260905201943 83 270 2.0 4.0 0.00 0.00 0.00 63 1017.7
20260905201743 83 248 1.0 2.0 0.00 0.00 0.00 62 1017.7
20260905201143 83 270 1.0 2.0 0.00 0.00 0.00 62 1017.8
20260905200944 83 248 2.0 2.0 0.00 0.00 0.00 61 1017.7
20260905200741 83 270 1.0 2.0 0.00 0.00 0.00 61 1018.0
20260905200545 83 248 2.0 2.0 0.00 0.00 0.00 60 1017.9
20260905200342 83 225 2.0 2.0 0.00 0.00 0.00 60 1017.7
20260905200142 84 248 2.0 2.0 0.00 0.00 0.00 59 1018.0
20260905195942 84 270 2.0 2.0 0.00 0.00 0.00 58 1017.9
20260905195744 83 270 2.0 2.0 0.00 0.00 0.00 58 1018.0
20260905195549 83 270 2.0 4.0 0.00 0.00 0.00 57 1017.9
20260905195142 83 270 4.0 4.0 0.00 0.00 0.00 56 1017.8
20260905194943 83 248 3.0 4.0 0.00 0.00 0.00 55 1018.0
20260905194743 83 270 3.0 4.0 0.00 0.00 0.00 54 1018.0
20260905194341 83 248 2.0 4.0 0.00 0.00 0.00 51 1017.9
20260905194143 82 270 3.0 4.0 0.00 0.00 0.00 49 1017.8
20260905193743 82 292 2.0 2.0 0.00 0.00 0.00 44 1017.9
20260905193545 83 292 2.0 4.0 0.00 0.00 0.00 43 1018.0
20260905193342 83 270 1.0 2.0 0.00 0.00 0.00 42 1018.0
20260905193141 83 270 2.0 2.0 0.00 0.00 0.00 41 1017.9
20260905192941 83 270 3.0 4.0 0.00 0.00 0.00 42 1017.9
20260905192743 83 270 2.0 2.0 0.00 0.00 0.00 42 1017.8
20260905192548 83 292 2.0 2.0 0.00 0.00 0.00 42 1017.9
20260905192143 82 270 2.0 4.0 0.00 0.00 0.00 41 1017.9
20260905191941 82 248 2.0 4.0 0.00 0.00 0.00 42 1017.8
20260905191548 82 270 3.0 4.0 0.00 0.00 0.00 44 1017.8
20260905191342 82 270 2.0 4.0 0.00 0.00 0.00 46 1017.9
20260905191151 81 270 2.0 2.0 0.00 0.00 0.00 47 1017.8
20260905190943 81 270 2.0 4.0 0.00 0.00 0.00 47 1017.7
20260905190742 81 270 3.0 4.0 0.00 0.00 0.00 49 1017.8
20260905190546 80 248 2.0 4.0 0.00 0.00 0.00 50 1017.7
20260905190144 80 270 2.0 4.0 0.00 0.00 0.00 53 1017.8
20260905185941 80 225 2.0 4.0 0.00 0.00 0.00 51 1017.5
20260905185342 80 225 0.0 2.0 0.00 0.00 0.00 52 1017.7
20260905185143 80 225 0.0 2.0 0.00 0.00 0.00 53 1017.7
20260905184942 80 248 0.0 0.0 0.00 0.00 0.00 52 1017.6
20260905184742 81 248 0.0 0.0 0.00 0.00 0.00 52 1017.8
20260905184548 81 248 0.0 0.0 0.00 0.00 0.00 52 1017.8
20260905184344 81 225 1.0 2.0 0.00 0.00 0.00 51 1017.5
20260905184150 82 270 1.0 2.0 0.00 0.00 0.00 50 1017.7
20260905183944 82 248 1.0 2.0 0.00 0.00 0.00 50 1017.6
20260905183742 82 225 1.0 2.0 0.00 0.00 0.00 50 1017.5
20260905183546 82 225 1.0 2.0 0.00 0.00 0.00 50 1017.4
20260905183343 82 248 2.0 2.0 0.00 0.00 0.00 49 1017.5
20260905183142 82 248 2.0 2.0 0.00 0.00 0.00 49 1017.4
20260905182942 82 225 0.0 2.0 0.00 0.00 0.00 50 1017.5
20260905182741 81 225 2.0 2.0 0.00 0.00 0.00 50 1017.5
20260905182600 81 248 1.0 2.0 0.00 0.00 0.00 50 1017.5
20260905182343 82 248 1.0 2.0 0.00 0.00 0.00 50 1017.5
20260905182142 82 270 1.0 2.0 0.00 0.00 0.00 49 1017.3
20260905181943 82 270 1.0 2.0 0.00 0.00 0.00 49 1017.5
20260905181744 82 270 1.0 2.0 0.00 0.00 0.00 48 1017.3
20260905181548 82 225 2.0 2.0 0.00 0.00 0.00 48 1017.4
20260905181344 82 225 1.0 2.0 0.00 0.00 0.00 48 1017.3
20260905181141 82 202 2.0 4.0 0.00 0.00 0.00 48 1017.4
20260905180742 82 248 2.0 2.0 0.00 0.00 0.00 48 1017.3
20260905180242 83 248 1.0 2.0 0.00 0.00 0.00 47 1017.3
20260905180050 83 292 1.0 2.0 0.00 0.00 0.00 47 1017.4
20260905175842 83 292 2.0 2.0 0.00 0.00 0.00 45 1017.2
20260905175045 84 180 2.0 2.0 0.00 0.00 0.00 43 1017.1
20260905174842 84 225 1.0 2.0 0.00 0.00 0.00 43 1017.1
20260905174643 85 248 1.0 2.0 0.00 0.00 0.00 43 1016.9
20260905173643 85 202 2.0 4.0 0.00 0.00 0.00 43 1016.8
20260905173444 85 180 2.0 4.0 0.00 0.00 0.00 43 1016.8
20260905173048 85 225 3.0 4.0 0.00 0.00 0.00 44 1016.7
20260905172843 85 180 3.0 7.0 0.00 0.00 0.00 44 1016.8
20260905172643 85 270 3.0 4.0 0.00 0.00 0.00 45 1016.8
20260905172443 85 248 2.0 4.0 0.00 0.00 0.00 45 1016.6
20260905172047 86 248 2.0 4.0 0.00 0.00 0.00 46 1016.7
20260905171841 86 180 3.0 6.0 0.00 0.00 0.00 46 1016.8
20260905171642 86 202 3.0 4.0 0.00 0.00 0.00 46 1016.7
20260905171443 86 158 3.0 6.0 0.00 0.00 0.00 47 1016.7
20260905171242 86 225 2.0 4.0 0.00 0.00 0.00 47 1016.8
20260905170842 86 135 3.0 4.0 0.00 0.00 0.00 47 1016.8
20260905170643 86 112 4.0 7.0 0.00 0.00 0.00 47 1016.7
20260905170242 87 158 4.0 7.0 0.00 0.00 0.00 47 1016.9
20260905165842 87 270 3.0 6.0 0.00 0.00 0.00 47 1016.6
20260905165643 87 158 3.0 4.0 0.00 0.00 0.00 47 1016.7
20260905165241 87 180 4.0 7.0 0.00 0.00 0.00 48 1016.7
20260905165045 87 68 4.0 6.0 0.00 0.00 0.00 48 1016.9
20260905164842 87 135 3.0 6.0 0.00 0.00 0.00 48 1016.7
20260905164643 88 225 4.0 7.0 0.00 0.00 0.00 48 1016.8
20260905164441 88 158 3.0 4.0 0.00 0.00 0.00 48 1016.7
20260905164242 88 158 3.0 4.0 0.00 0.00 0.00 47 1016.8
20260905164052 88 158 7.0 9.0 0.00 0.00 0.00 46 1016.8
20260905163840 88 225 3.0 4.0 0.00 0.00 0.00 46 1016.8
20260905163641 88 180 4.0 7.0 0.00 0.00 0.00 46 1016.7
20260905163047 89 225 4.0 7.0 0.00 0.00 0.00 44 1016.8
20260905162842 89 158 4.0 4.0 0.00 0.00 0.00 44 1016.8
20260905162642 89 158 4.0 8.0 0.00 0.00 0.00 44 1016.7
20260905162441 89 158 6.0 11.0 0.00 0.00 0.00 43 1016.7
20260905162242 89 180 4.0 8.0 0.00 0.00 0.00 42 1016.8
20260905162045 89 158 4.0 6.0 0.00 0.00 0.00 42 1017.0
20260905161843 89 112 6.0 8.0 0.00 0.00 0.00 41 1016.8
20260905161641 90 202 6.0 8.0 0.00 0.00 0.00 41 1016.6
20260905161441 90 202 5.0 7.0 0.00 0.00 0.00 40 1016.7
20260905161242 90 135 4.0 6.0 0.00 0.00 0.00 39 1016.9
20260905161049 90 225 4.0 6.0 0.00 0.00 0.00 39 1016.6
20260905160841 90 180 4.0 7.0 0.00 0.00 0.00 39 1016.9
20260905160440 91 202 3.0 4.0 0.00 0.00 0.00 38 1016.9
20260905160241 91 180 4.0 7.0 0.00 0.00 0.00 37 1016.8
20260905155841 91 180 4.0 7.0 0.00 0.00 0.00 37 1016.8
20260905155644 91 158 4.0 8.0 0.00 0.00 0.00 36 1016.8
20260905155441 91 180 6.0 8.0 0.00 0.00 0.00 35 1016.8
20260905155242 91 180 5.0 8.0 0.00 0.00 0.00 35 1016.8
20260905155044 91 180 6.0 8.0 0.00 0.00 0.00 35 1017.0
20260905154641 91 180 6.0 9.0 0.00 0.00 0.00 34 1016.8
20260905154441 92 270 7.0 9.0 0.00 0.00 0.00 34 1016.9
20260905154240 92 158 5.0 9.0 0.00 0.00 0.00 34 1017.0
20260905154047 92 158 5.0 8.0 0.00 0.00 0.00 34 1016.9
20260905153842 92 158 6.0 9.0 0.00 0.00 0.00 35 1016.9
20260905153440 92 180 7.0 11.0 0.00 0.00 0.00 35 1016.9
20260905153241 92 158 4.0 8.0 0.00 0.00 0.00 35 1016.9
20260905152241 92 225 5.0 9.0 0.00 0.00 0.00 36 1017.0
20260905152044 92 158 6.0 9.0 0.00 0.00 0.00 36 1016.9
20260905151842 92 180 6.0 9.0 0.00 0.00 0.00 36 1017.0
20260905151641 92 202 6.0 9.0 0.00 0.00 0.00 37 1017.0
20260905151241 92 202 4.0 6.0 0.00 0.00 0.00 37 1017.2
20260905151051 92 112 3.0 4.0 0.00 0.00 0.00 37 1017.3
20260905150841 92 180 4.0 7.0 0.00 0.00 0.00 37 1017.0
20260905150641 92 180 7.0 11.0 0.00 0.00 0.00 37 1017.0
20260905150242 93 180 4.0 9.0 0.00 0.00 0.00 36 1017.0
20260905145841 93 180 4.0 7.0 0.00 0.00 0.00 36 1016.9
20260905145642 92 135 4.0 6.0 0.00 0.00 0.00 35 1016.9
20260905145442 93 180 6.0 8.0 0.00 0.00 0.00 35 1017.1
20260905145045 93 180 5.0 9.0 0.00 0.00 0.00 34 1017.2
20260905144841 93 180 6.0 11.0 0.00 0.00 0.00 34 1016.9
20260905144441 93 135 5.0 7.0 0.00 0.00 0.00 35 1017.1
20260905144241 93 158 6.0 9.0 0.00 0.00 0.00 34 1017.0
20260905143840 93 202 4.0 8.0 0.00 0.00 0.00 35 1017.0
20260905143642 93 180 4.0 7.0 0.00 0.00 0.00 35 1017.1
20260905143443 93 180 4.0 7.0 0.00 0.00 0.00 34 1016.9
20260905143241 93 158 4.0 8.0 0.00 0.00 0.00 34 1016.9
20260905142842 94 180 6.0 9.0 0.00 0.00 0.00 33 1017.1
20260905142649 94 135 4.0 6.0 0.00 0.00 0.00 34 1016.9
20260905142442 94 112 4.0 6.0 0.00 0.00 0.00 35 1017.0
20260905142241 94 135 4.0 6.0 0.00 0.00 0.00 34 1017.2
20260905142046 94 248 8.0 11.0 0.00 0.00 0.00 34 1017.1
20260905141645 93 158 7.0 11.0 0.00 0.00 0.00 35 1017.1
20260905141442 93 158 5.0 8.0 0.00 0.00 0.00 34 1017.1
20260905141241 94 135 8.0 11.0 0.00 0.00 0.00 35 1017.1
20260905141052 94 202 6.0 8.0 0.00 0.00 0.00 34 1017.3
20260905140642 94 158 4.0 6.0 0.00 0.00 0.00 34 1017.3
20260905140442 93 135 4.0 7.0 0.00 0.00 0.00 34 1017.3
20260905140241 93 180 5.0 9.0 0.00 0.00 0.00 33 1017.3
20260905140049 94 180 6.0 8.0 0.00 0.00 0.00 33 1017.3
20260905135842 94 180 7.0 9.0 0.00 0.00 0.00 32 1017.3
20260905135642 94 135 4.0 7.0 0.00 0.00 0.00 33 1017.1
20260905135241 94 180 7.0 9.0 0.00 0.00 0.00 34 1017.2
20260905135049 94 158 4.0 7.0 0.00 0.00 0.00 34 1017.2
20260905134841 94 180 4.0 7.0 0.00 0.00 0.00 34 1017.2
20260905134642 94 202 5.0 8.0 0.00 0.00 0.00 33 1017.2
20260905134241 94 158 5.0 8.0 0.00 0.00 0.00 33 1017.5
20260905134050 94 158 4.0 7.0 0.00 0.00 0.00 33 1017.4
20260905133843 94 135 4.0 7.0 0.00 0.00 0.00 36 1017.2
20260905133641 94 112 4.0 6.0 0.00 0.00 0.00 35 1017.3